Location: Castelbiague
(43.0361°N, 0.9246°E)
Time: 09:53:10
(UTC+00:00)

Cosmos 1727 Rocket - Pass Details

Date: 17 June 2021
Orbit: 960 x 997 km, 82.9° (Epoch: 03 August)

Event Time Altitude Azimuth Distance (km) Brightness Sun altitude
Rises 20:51:02 0° 185° (S) 3,696 6.6 -10.9°
Reaches altitude 10° 20:53:33 10° 185° (S) 2,748 6.0 -11.3°
Maximum altitude 20:59:52 89° 97° (E) 994 4.0 -12.0°
Drops below altitude 10° 21:06:11 10° 8° (N) 2,744 7.0 -12.8°
Sets 21:08:42 0° 9° (N) 3,690 7.7 -13.1°
